Time,TemperatureF,DewpointF,PressureIn,WindDirection,WindDirectionDegrees,WindSpeedMPH,WindSpeedGustMPH,Humidity,HourlyPrecipIn,Conditions,Clouds,dailyrainin,SoftwareType,DateUTC
2013-05-28 00:01:00,64.3,61.3,30.09,ESE,110,0.0,0.0,90,0.00,,CLR,0.00,VWS V14.00,2013-05-28 04:01:00,
2013-05-28 00:06:00,64.2,61.2,30.09,ESE,110,0.0,0.0,90,0.00,,CLR,0.00,VWS V14.00,2013-05-28 04:06:00,
2013-05-28 00:11:00,64.1,61.1,30.09,ESE,110,0.0,0.0,90,0.00,,CLR,0.00,VWS V14.00,2013-05-28 04:11:00,
2013-05-28 00:16:00,64.0,61.3,30.09,ESE,110,0.0,0.0,91,0.00,,CLR,0.00,VWS V14.00,2013-05-28 04:16:00,
2013-05-28 00:21:00,64.0,61.3,30.09,ESE,110,0.0,0.0,91,0.00,,CLR,0.00,VWS V14.00,2013-05-28 04:21:00,
2013-05-28 00:26:00,63.8,61.1,30.09,ESE,110,0.0,1.0,91,0.00,,CLR,0.00,VWS V14.00,2013-05-28 04:26:00,
2013-05-28 00:31:00,63.6,61.2,30.08,ESE,110,0.0,1.0,92,0.00,,CLR,0.00,VWS V14.00,2013-05-28 04:31:00,
2013-05-28 00:36:00,63.6,61.2,30.08,ESE,110,0.0,1.0,92,0.00,,CLR,0.00,VWS V14.00,2013-05-28 04:36:00,
2013-05-28 00:41:00,63.5,61.1,30.08,ESE,110,0.0,1.0,92,0.00,,CLR,0.00,VWS V14.00,2013-05-28 04:41:00,
2013-05-28 00:46:00,63.3,60.9,30.09,ESE,110,0.0,1.0,92,0.00,,CLR,0.00,VWS V14.00,2013-05-28 04:46:00,
2013-05-28 00:51:00,63.3,60.9,30.09,ESE,110,0.0,1.0,92,0.00,,CLR,0.00,VWS V14.00,2013-05-28 04:51:00,
2013-05-28 00:56:00,63.2,60.8,30.09,ESE,110,0.0,1.0,92,0.00,,CLR,0.00,VWS V14.00,2013-05-28 04:56:00,
2013-05-28 01:01:00,63.2,60.8,30.09,ESE,110,0.0,0.0,92,0.00,,CLR,0.00,VWS V14.00,2013-05-28 05:01:00,
2013-05-28 01:06:00,63.3,60.9,30.09,ESE,110,0.0,0.0,92,0.00,,CLR,0.00,VWS V14.00,2013-05-28 05:06:00,
2013-05-28 01:11:00,63.4,61.0,30.09,ESE,110,0.0,0.0,92,0.00,,CLR,0.00,VWS V14.00,2013-05-28 05:11:00,
2013-05-28 01:16:00,63.4,61.0,30.09,ESE,110,0.0,0.0,92,0.00,,CLR,0.00,VWS V14.00,2013-05-28 05:16:00,
2013-05-28 01:21:00,63.4,61.0,30.09,ESE,110,0.0,0.0,92,0.00,,CLR,0.00,VWS V14.00,2013-05-28 05:21:00,
2013-05-28 01:26:00,63.5,61.1,30.09,ESE,110,0.0,0.0,92,0.00,,CLR,0.00,VWS V14.00,2013-05-28 05:26:00,
2013-05-28 01:31:00,63.5,61.1,30.08,ESE,110,0.0,0.0,92,0.00,,CLR,0.00,VWS V14.00,2013-05-28 05:31:00,
2013-05-28 01:36:00,63.7,61.3,30.08,ESE,110,0.0,0.0,92,0.00,,CLR,0.00,VWS V14.00,2013-05-28 05:36:00,
2013-05-28 01:41:00,63.8,61.4,30.08,ESE,110,0.0,0.0,92,0.00,,CLR,0.00,VWS V14.00,2013-05-28 05:41:00,
2013-05-28 01:46:00,63.9,61.5,30.08,ESE,110,0.0,0.0,92,0.00,,CLR,0.00,VWS V14.00,2013-05-28 05:46:00,
2013-05-28 01:51:00,63.9,61.5,30.08,ESE,110,0.0,0.0,92,0.00,,CLR,0.00,VWS V14.00,2013-05-28 05:51:00,
2013-05-28 01:56:00,63.9,61.2,30.08,ESE,110,0.0,0.0,91,0.00,,CLR,0.00,VWS V14.00,2013-05-28 05:56:00,
2013-05-28 02:01:00,63.9,61.5,30.08,ESE,110,0.0,0.0,92,0.00,,CLR,0.00,VWS V14.00,2013-05-28 06:01:00,
2013-05-28 02:06:00,63.9,61.2,30.08,ESE,110,0.0,0.0,91,0.00,,CLR,0.00,VWS V14.00,2013-05-28 06:06:00,
2013-05-28 02:11:00,63.8,61.1,30.08,ESE,110,0.0,0.0,91,0.00,,CLR,0.00,VWS V14.00,2013-05-28 06:11:00,
2013-05-28 02:16:00,63.6,60.9,30.08,ESE,110,0.0,0.0,91,0.00,,CLR,0.00,VWS V14.00,2013-05-28 06:16:00,
2013-05-28 02:21:00,63.5,61.1,30.08,ESE,110,0.0,0.0,92,0.00,,CLR,0.00,VWS V14.00,2013-05-28 06:21:00,
2013-05-28 02:26:00,63.5,61.1,30.08,ESE,110,0.0,0.0,92,0.00,,CLR,0.00,VWS V14.00,2013-05-28 06:26:00,
2013-05-28 02:31:00,63.3,60.9,30.08,ESE,110,0.0,0.0,92,0.00,,CLR,0.00,VWS V14.00,2013-05-28 06:31:00,
2013-05-28 02:36:00,63.2,60.8,30.08,ESE,110,0.0,0.0,92,0.00,,CLR,0.00,VWS V14.00,2013-05-28 06:36:00,
2013-05-28 02:41:00,63.0,60.6,30.08,ESE,110,0.0,0.0,92,0.00,,CLR,0.00,VWS V14.00,2013-05-28 06:41:00,
2013-05-28 02:46:00,62.9,60.8,30.08,ESE,110,0.0,0.0,93,0.00,,CLR,0.00,VWS V14.00,2013-05-28 06:46:00,
2013-05-28 02:51:00,62.9,60.8,30.08,ESE,110,0.0,1.0,93,0.00,,CLR,0.00,VWS V14.00,2013-05-28 06:51:00,
2013-05-28 02:56:00,63.0,61.0,30.08,ESE,110,0.0,1.0,93,0.00,,CLR,0.00,VWS V14.00,2013-05-28 06:56:00,
2013-05-28 03:01:00,63.0,61.0,30.08,ESE,110,0.0,0.0,93,0.00,,CLR,0.00,VWS V14.00,2013-05-28 07:01:00,
2013-05-28 03:06:00,63.3,61.2,30.08,ESE,110,0.0,0.0,93,0.00,,CLR,0.00,VWS V14.00,2013-05-28 07:06:00,
2013-05-28 03:11:00,63.6,61.5,30.08,ESE,110,0.0,0.0,93,0.00,,CLR,0.00,VWS V14.00,2013-05-28 07:11:00,
2013-05-28 03:16:00,63.9,61.5,30.07,ESE,110,0.0,0.0,92,0.00,,CLR,0.00,VWS V14.00,2013-05-28 07:16:00,
2013-05-28 03:21:00,64.2,61.8,30.07,ESE,110,0.0,0.0,92,0.00,,CLR,0.00,VWS V14.00,2013-05-28 07:21:00,
2013-05-28 03:26:00,64.4,61.7,30.07,ESE,110,0.0,0.0,91,0.00,,CLR,0.00,VWS V14.00,2013-05-28 07:26:00,
2013-05-28 03:31:00,64.5,61.8,30.07,ESE,110,0.0,0.0,91,0.00,,CLR,0.00,VWS V14.00,2013-05-28 07:31:00,
2013-05-28 03:37:00,64.6,61.9,30.07,ESE,110,0.0,0.0,91,0.00,,CLR,0.00,VWS V14.00,2013-05-28 07:37:00,
2013-05-28 03:42:00,64.7,62.0,30.07,ESE,110,0.0,0.0,91,0.00,,CLR,0.00,VWS V14.00,2013-05-28 07:42:00,
2013-05-28 03:47:00,64.7,61.7,30.07,ESE,110,0.0,0.0,90,0.00,,CLR,0.00,VWS V14.00,2013-05-28 07:47:00,
2013-05-28 03:52:00,64.7,61.7,30.07,ESE,110,0.0,0.0,90,0.00,,CLR,0.00,VWS V14.00,2013-05-28 07:52:00,
2013-05-28 03:57:00,64.7,61.7,30.07,ESE,110,0.0,0.0,90,0.00,,CLR,0.00,VWS V14.00,2013-05-28 07:57:00,
2013-05-28 04:02:00,64.6,61.6,30.08,ESE,110,0.0,0.0,90,0.00,,CLR,0.00,VWS V14.00,2013-05-28 08:02:00,
2013-05-28 04:07:00,64.6,61.6,30.08,ESE,110,0.0,0.0,90,0.00,,CLR,0.00,VWS V14.00,2013-05-28 08:07:00,
2013-05-28 04:12:00,64.5,61.8,30.08,ESE,110,0.0,0.0,91,0.00,,CLR,0.00,VWS V14.00,2013-05-28 08:12:00,
2013-05-28 04:17:00,64.5,61.8,30.07,ESE,110,0.0,0.0,91,0.00,,CLR,0.00,VWS V14.00,2013-05-28 08:17:00,
2013-05-28 04:22:00,64.4,61.7,30.07,ESE,110,0.0,0.0,91,0.00,,CLR,0.00,VWS V14.00,2013-05-28 08:22:00,
2013-05-28 04:27:00,64.3,61.3,30.07,ESE,110,0.0,0.0,90,0.00,,CLR,0.00,VWS V14.00,2013-05-28 08:27:00,
2013-05-28 04:32:00,64.2,61.5,30.08,ESE,110,0.0,0.0,91,0.00,,CLR,0.00,VWS V14.00,2013-05-28 08:32:00,
2013-05-28 04:37:00,64.1,61.4,30.08,ESE,110,0.0,0.0,91,0.00,,CLR,0.00,VWS V14.00,2013-05-28 08:37:00,
2013-05-28 04:42:00,64.0,61.3,30.08,ESE,110,0.0,0.0,91,0.00,,CLR,0.00,VWS V14.00,2013-05-28 08:42:00,
2013-05-28 04:47:00,64.0,61.3,30.08,ESE,110,0.0,0.0,91,0.00,,CLR,0.00,VWS V14.00,2013-05-28 08:47:00,
2013-05-28 04:52:00,64.0,61.3,30.08,ESE,110,0.0,0.0,91,0.00,,CLR,0.00,VWS V14.00,2013-05-28 08:52:00,
2013-05-28 04:57:00,63.9,61.5,30.08,ESE,110,0.0,0.0,92,0.00,,CLR,0.00,VWS V14.00,2013-05-28 08:57:00,
2013-05-28 05:02:00,63.9,61.2,30.08,ESE,110,0.0,0.0,91,0.00,,CLR,0.00,VWS V14.00,2013-05-28 09:02:00,
2013-05-28 05:07:00,63.8,61.4,30.08,ESE,110,0.0,0.0,92,0.00,,CLR,0.00,VWS V14.00,2013-05-28 09:07:00,
2013-05-28 05:12:00,63.6,61.2,30.08,ESE,110,0.0,0.0,92,0.00,,CLR,0.00,VWS V14.00,2013-05-28 09:12:00,
2013-05-28 05:17:00,63.5,61.1,30.08,ESE,110,0.0,1.0,92,0.00,,CLR,0.00,VWS V14.00,2013-05-28 09:17:00,
2013-05-28 05:22:00,63.4,61.0,30.08,ESE,110,0.0,1.0,92,0.00,,CLR,0.00,VWS V14.00,2013-05-28 09:22:00,
2013-05-28 05:27:00,63.3,60.9,30.08,ESE,110,0.0,1.0,92,0.00,,CLR,0.00,VWS V14.00,2013-05-28 09:27:00,
2013-05-28 05:32:00,63.2,60.8,30.08,ESE,110,0.0,0.0,92,0.00,,CLR,0.00,VWS V14.00,2013-05-28 09:32:00,
2013-05-28 05:37:00,63.1,60.7,30.08,ESE,110,0.0,0.0,92,0.00,,CLR,0.00,VWS V14.00,2013-05-28 09:37:00,
2013-05-28 05:42:00,63.1,60.7,30.08,ESE,110,0.0,0.0,92,0.00,,CLR,0.00,VWS V14.00,2013-05-28 09:42:00,
2013-05-28 05:47:00,63.0,61.0,30.09,ESE,110,0.0,0.0,93,0.00,,CLR,0.00,VWS V14.00,2013-05-28 09:47:00,
2013-05-28 05:52:00,63.0,61.0,30.09,ESE,110,0.0,0.0,93,0.00,,CLR,0.00,VWS V14.00,2013-05-28 09:52:00,
2013-05-28 05:57:00,62.9,60.8,30.09,ESE,110,0.0,1.0,93,0.00,,CLR,0.00,VWS V14.00,2013-05-28 09:57:00,
2013-05-28 06:02:00,62.9,60.8,30.09,ESE,110,0.0,0.0,93,0.00,,CLR,0.00,VWS V14.00,2013-05-28 10:02:00,
2013-05-28 06:07:00,62.8,60.8,30.09,ESE,110,0.0,0.0,93,0.00,,CLR,0.00,VWS V14.00,2013-05-28 10:07:00,
2013-05-28 06:12:00,62.8,60.8,30.09,ESE,110,0.0,0.0,93,0.00,,CLR,0.00,VWS V14.00,2013-05-28 10:12:00,
2013-05-28 06:17:00,62.8,60.8,30.10,ESE,110,0.0,0.0,93,0.00,,CLR,0.00,VWS V14.00,2013-05-28 10:17:00,
2013-05-28 06:22:00,62.8,60.8,30.10,ESE,110,0.0,0.0,93,0.00,,CLR,0.00,VWS V14.00,2013-05-28 10:22:00,
2013-05-28 06:27:00,62.8,60.8,30.10,ESE,110,0.0,1.0,93,0.00,,CLR,0.00,VWS V14.00,2013-05-28 10:27:00,
2013-05-28 06:32:00,62.8,60.8,30.10,ESE,110,0.0,1.0,93,0.00,,CLR,0.00,VWS V14.00,2013-05-28 10:32:00,
2013-05-28 06:37:00,62.7,60.7,30.10,ESE,110,0.0,1.0,93,0.00,,CLR,0.00,VWS V14.00,2013-05-28 10:37:00,
2013-05-28 06:42:00,62.8,60.8,30.10,ESE,110,0.0,1.0,93,0.00,,CLR,0.00,VWS V14.00,2013-05-28 10:42:00,
2013-05-28 06:47:00,62.8,60.8,30.11,ESE,110,0.0,1.0,93,0.00,,CLR,0.00,VWS V14.00,2013-05-28 10:47:00,
2013-05-28 06:52:00,62.9,60.8,30.11,ESE,110,0.0,1.0,93,0.00,,CLR,0.00,VWS V14.00,2013-05-28 10:52:00,
2013-05-28 06:57:00,63.0,61.0,30.11,ESE,110,0.0,1.0,93,0.00,,CLR,0.00,VWS V14.00,2013-05-28 10:57:00,
2013-05-28 07:02:00,63.1,61.3,30.11,ESE,110,0.0,0.0,94,0.00,,CLR,0.00,VWS V14.00,2013-05-28 11:02:00,
2013-05-28 07:07:00,63.2,61.2,30.11,ESE,110,0.0,0.0,93,0.00,,CLR,0.00,VWS V14.00,2013-05-28 11:07:00,
2013-05-28 07:12:00,63.3,61.2,30.11,ESE,110,0.0,0.0,93,0.00,,CLR,0.00,VWS V14.00,2013-05-28 11:12:00,
2013-05-28 07:17:00,63.4,61.3,30.11,ESE,110,0.0,1.0,93,0.00,,CLR,0.00,VWS V14.00,2013-05-28 11:17:00,
2013-05-28 07:22:00,63.5,61.4,30.11,ESE,110,0.0,1.0,93,0.00,,CLR,0.00,VWS V14.00,2013-05-28 11:22:00,
2013-05-28 07:27:00,63.6,61.5,30.11,ESE,110,0.0,1.0,93,0.00,,CLR,0.00,VWS V14.00,2013-05-28 11:27:00,
2013-05-28 07:32:00,63.7,61.6,30.11,ESE,110,0.0,0.0,93,0.00,,CLR,0.00,VWS V14.00,2013-05-28 11:32:00,
2013-05-28 07:37:00,64.0,61.9,30.11,ESE,110,0.0,0.0,93,0.00,,CLR,0.00,VWS V14.00,2013-05-28 11:37:00,
2013-05-28 07:42:00,64.2,62.1,30.11,ESE,110,0.0,0.0,93,0.00,,CLR,0.00,VWS V14.00,2013-05-28 11:42:00,
2013-05-28 07:47:00,64.4,62.3,30.12,ESE,110,0.0,0.0,93,0.00,,CLR,0.00,VWS V14.00,2013-05-28 11:47:00,
2013-05-28 07:52:00,64.6,62.2,30.12,ESE,110,0.0,0.0,92,0.00,,CLR,0.00,VWS V14.00,2013-05-28 11:52:00,
2013-05-28 07:57:00,64.7,62.3,30.12,ESE,116,0.0,0.0,92,0.00,,CLR,0.00,VWS V14.00,2013-05-28 11:57:00,
2013-05-28 08:02:00,64.9,62.5,30.12,ESE,116,0.0,0.0,92,0.00,,CLR,0.00,VWS V14.00,2013-05-28 12:02:00,
2013-05-28 08:07:00,65.2,62.8,30.12,ESE,115,0.0,0.0,92,0.00,,CLR,0.00,VWS V14.00,2013-05-28 12:07:00,
2013-05-28 08:12:00,65.5,63.1,30.12,ESE,115,0.0,0.0,92,0.00,,CLR,0.00,VWS V14.00,2013-05-28 12:12:00,
2013-05-28 08:17:00,65.6,62.9,30.13,ESE,115,0.0,0.0,91,0.00,,CLR,0.00,VWS V14.00,2013-05-28 12:17:00,
2013-05-28 08:22:00,65.9,63.2,30.13,ESE,116,0.0,0.0,91,0.00,,CLR,0.00,VWS V14.00,2013-05-28 12:22:00,
2013-05-28 08:27:00,66.2,63.5,30.13,ESE,115,0.0,0.0,91,0.00,,CLR,0.00,VWS V14.00,2013-05-28 12:27:00,
2013-05-28 08:32:00,66.5,63.8,30.13,ESE,115,0.0,0.0,91,0.00,,CLR,0.00,VWS V14.00,2013-05-28 12:32:00,
2013-05-28 08:37:00,66.6,63.9,30.13,SE,124,0.0,0.0,91,0.00,,CLR,0.00,VWS V14.00,2013-05-28 12:37:00,
2013-05-28 08:42:00,66.8,63.8,30.13,SE,134,0.0,0.0,90,0.00,,CLR,0.00,VWS V14.00,2013-05-28 12:42:00,
2013-05-28 08:47:00,67.0,64.0,30.13,SE,137,0.0,0.0,90,0.00,,CLR,0.00,VWS V14.00,2013-05-28 12:47:00,
2013-05-28 08:52:00,67.2,64.2,30.13,SE,136,0.0,0.0,90,0.00,,CLR,0.00,VWS V14.00,2013-05-28 12:52:00,
2013-05-28 08:57:00,67.5,64.5,30.13,SE,135,0.0,0.0,90,0.00,,CLR,0.00,VWS V14.00,2013-05-28 12:57:00,
2013-05-28 09:02:00,67.8,64.4,30.13,SE,136,0.0,0.0,89,0.00,,CLR,0.00,VWS V14.00,2013-05-28 13:02:00,
2013-05-28 09:07:00,68.1,64.7,30.13,SE,135,0.0,0.0,89,0.00,,CLR,0.00,VWS V14.00,2013-05-28 13:07:00,
2013-05-28 09:12:00,68.5,65.1,30.13,SE,135,0.0,0.0,89,0.00,,CLR,0.00,VWS V14.00,2013-05-28 13:12:00,
2013-05-28 09:17:00,68.9,65.5,30.13,SE,135,0.0,0.0,89,0.00,,CLR,0.00,VWS V14.00,2013-05-28 13:17:00,
2013-05-28 09:22:00,69.2,64.8,30.13,SSW,207,0.0,1.0,86,0.00,,CLR,0.00,VWS V14.00,2013-05-28 13:22:00,
2013-05-28 09:27:00,69.3,64.6,30.13,SSW,211,0.0,1.0,85,0.00,,CLR,0.00,VWS V14.00,2013-05-28 13:27:00,
2013-05-28 09:32:00,69.4,64.7,30.13,SSW,211,0.0,0.0,85,0.00,,CLR,0.00,VWS V14.00,2013-05-28 13:32:00,
2013-05-28 09:37:00,69.6,64.9,30.13,SSW,205,0.0,0.0,85,0.00,,CLR,0.00,VWS V14.00,2013-05-28 13:37:00,
2013-05-28 09:42:00,70.0,64.9,30.13,SSW,204,0.0,0.0,84,0.00,,CLR,0.00,VWS V14.00,2013-05-28 13:42:00,
2013-05-28 09:47:00,70.4,65.0,30.13,SSW,206,0.0,0.0,83,0.00,,CLR,0.00,VWS V14.00,2013-05-28 13:47:00,
2013-05-28 09:52:00,70.6,65.2,30.13,SSW,206,0.0,0.0,83,0.00,,CLR,0.00,VWS V14.00,2013-05-28 13:52:00,
2013-05-28 09:57:00,70.7,65.3,30.13,SSW,205,0.0,0.0,83,0.00,,CLR,0.00,VWS V14.00,2013-05-28 13:57:00,
2013-05-28 10:02:00,70.8,65.4,30.13,SSW,205,0.0,0.0,83,0.00,,CLR,0.00,VWS V14.00,2013-05-28 14:02:00,
2013-05-28 10:07:00,71.0,65.9,30.13,SSW,212,0.0,0.0,84,0.00,,CLR,0.00,VWS V14.00,2013-05-28 14:07:00,
2013-05-28 10:12:00,71.3,65.9,30.13,SSW,211,0.0,0.0,83,0.00,,CLR,0.00,VWS V14.00,2013-05-28 14:12:00,
2013-05-28 10:17:00,71.6,66.2,30.13,SE,126,0.0,0.0,83,0.00,,CLR,0.00,VWS V14.00,2013-05-28 14:17:00,
2013-05-28 10:22:00,72.0,66.2,30.13,SE,124,0.0,0.0,82,0.00,,CLR,0.00,VWS V14.00,2013-05-28 14:22:00,
2013-05-28 10:27:00,73.0,66.1,30.13,East,94,1.0,1.0,79,0.00,,CLR,0.00,VWS V14.00,2013-05-28 14:27:00,
2013-05-28 10:32:00,73.5,65.1,30.13,East,94,0.0,1.0,75,0.00,,CLR,0.00,VWS V14.00,2013-05-28 14:32:00,
2013-05-28 10:37:00,73.9,65.5,30.13,SW,217,0.0,3.0,75,0.00,,CLR,0.00,VWS V14.00,2013-05-28 14:37:00,
2013-05-28 10:42:00,74.0,66.0,30.13,SW,217,0.0,3.0,76,0.00,,CLR,0.00,VWS V14.00,2013-05-28 14:42:00,
2013-05-28 10:47:00,74.3,65.5,30.14,West,266,0.0,3.0,74,0.00,,CLR,0.00,VWS V14.00,2013-05-28 14:47:00,
2013-05-28 10:52:00,74.4,64.8,30.14,West,264,0.0,3.0,72,0.00,,CLR,0.00,VWS V14.00,2013-05-28 14:52:00,
2013-05-28 10:57:00,74.6,65.0,30.14,West,276,0.0,3.0,72,0.00,,CLR,0.00,VWS V14.00,2013-05-28 14:57:00,
2013-05-28 11:02:00,74.8,65.2,30.14,West,278,0.0,0.0,72,0.00,,CLR,0.00,VWS V14.00,2013-05-28 15:02:00,
2013-05-28 11:07:00,75.1,66.2,30.14,West,279,0.0,0.0,74,0.00,,CLR,0.00,VWS V14.00,2013-05-28 15:07:00,
2013-05-28 11:12:00,75.3,64.4,30.14,SW,219,0.0,3.0,69,0.00,,CLR,0.00,VWS V14.00,2013-05-28 15:12:00,
2013-05-28 11:17:00,75.4,64.9,30.14,WSW,240,0.0,3.0,70,0.00,,CLR,0.00,VWS V14.00,2013-05-28 15:17:00,
2013-05-28 11:22:00,75.5,65.0,30.14,SSW,193,3.0,4.0,70,0.00,,CLR,0.00,VWS V14.00,2013-05-28 15:22:00,
2013-05-28 11:27:00,75.7,65.2,30.14,SW,231,0.0,4.0,70,0.00,,CLR,0.00,VWS V14.00,2013-05-28 15:27:00,
2013-05-28 11:32:00,76.8,65.9,30.14,SW,231,1.0,2.0,69,0.00,,CLR,0.00,VWS V14.00,2013-05-28 15:32:00,
2013-05-28 11:37:00,77.0,64.8,30.14,SW,236,0.0,4.0,66,0.00,,CLR,0.00,VWS V14.00,2013-05-28 15:37:00,
2013-05-28 11:42:00,77.3,66.8,30.14,SW,236,0.0,4.0,70,0.00,,CLR,0.00,VWS V14.00,2013-05-28 15:42:00,
2013-05-28 11:47:00,78.0,66.2,30.14,South,186,3.0,4.0,67,0.00,,CLR,0.00,VWS V14.00,2013-05-28 15:47:00,
2013-05-28 11:52:00,78.5,65.3,30.14,South,186,0.0,4.0,64,0.00,,CLR,0.00,VWS V14.00,2013-05-28 15:52:00,
2013-05-28 11:57:00,79.1,67.2,30.14,SSW,213,0.0,4.0,67,0.00,,CLR,0.00,VWS V14.00,2013-05-28 15:57:00,
2013-05-28 12:02:00,79.6,66.4,30.14,SW,220,2.0,3.0,64,0.00,,CLR,0.00,VWS V14.00,2013-05-28 16:02:00,
2013-05-28 12:07:00,80.2,67.4,30.14,SSE,162,0.0,6.0,65,0.00,,CLR,0.00,VWS V14.00,2013-05-28 16:07:00,
2013-05-28 12:12:00,80.3,67.5,30.14,WSW,248,3.0,6.0,65,0.00,,CLR,0.00,VWS V14.00,2013-05-28 16:12:00,
2013-05-28 12:17:00,80.6,67.8,30.13,SW,226,1.0,6.0,65,0.00,,CLR,0.00,VWS V14.00,2013-05-28 16:17:00,
2013-05-28 12:22:00,80.6,66.4,30.13,South,176,0.0,6.0,62,0.00,,CLR,0.00,VWS V14.00,2013-05-28 16:22:00,
2013-05-28 12:27:00,80.0,65.8,30.13,WSW,245,0.0,6.0,62,0.00,,CLR,0.00,VWS V14.00,2013-05-28 16:27:00,
2013-05-28 12:32:00,80.4,67.1,30.13,WNW,284,0.0,2.0,64,0.00,,CLR,0.00,VWS V14.00,2013-05-28 16:32:00,
2013-05-28 12:37:00,80.8,67.9,30.13,WSW,257,0.0,2.0,65,0.00,,CLR,0.00,VWS V14.00,2013-05-28 16:37:00,
2013-05-28 12:42:00,80.9,67.6,30.13,SSW,193,0.0,4.0,64,0.00,,CLR,0.00,VWS V14.00,2013-05-28 16:42:00,
2013-05-28 12:47:00,81.3,67.5,30.13,SSE,155,0.0,4.0,63,0.00,,CLR,0.00,VWS V14.00,2013-05-28 16:47:00,
2013-05-28 12:52:00,81.4,66.2,30.13,SSW,193,0.0,4.0,60,0.00,,CLR,0.00,VWS V14.00,2013-05-28 16:52:00,
2013-05-28 12:57:00,81.6,65.9,30.13,SSW,193,0.0,4.0,59,0.00,,CLR,0.00,VWS V14.00,2013-05-28 16:57:00,
2013-05-28 13:02:00,81.8,67.1,30.12,SSW,200,0.0,2.0,61,0.00,,CLR,0.00,VWS V14.00,2013-05-28 17:02:00,
2013-05-28 13:07:00,81.7,67.9,30.12,SW,214,0.0,4.0,63,0.00,,CLR,0.00,VWS V14.00,2013-05-28 17:07:00,
2013-05-28 13:12:00,81.6,68.2,30.12,SW,226,1.0,5.0,64,0.00,,CLR,0.00,VWS V14.00,2013-05-28 17:12:00,
2013-05-28 13:17:00,81.7,67.4,30.12,WSW,243,1.0,5.0,62,0.00,,CLR,0.00,VWS V14.00,2013-05-28 17:17:00,
2013-05-28 13:22:00,82.0,69.1,30.12,South,182,0.0,5.0,65,0.00,,CLR,0.00,VWS V14.00,2013-05-28 17:22:00,
2013-05-28 13:27:00,82.0,66.8,30.12,SW,235,0.0,6.0,60,0.00,,CLR,0.00,VWS V14.00,2013-05-28 17:27:00,
2013-05-28 13:32:00,81.9,66.7,30.11,South,185,0.0,3.0,60,0.00,,CLR,0.00,VWS V14.00,2013-05-28 17:32:00,
2013-05-28 13:37:00,82.0,68.6,30.11,South,183,0.0,3.0,64,0.00,,CLR,0.00,VWS V14.00,2013-05-28 17:37:00,
2013-05-28 13:42:00,82.6,69.2,30.11,SSW,193,0.0,3.0,64,0.00,,CLR,0.00,VWS V14.00,2013-05-28 17:42:00,
2013-05-28 13:47:00,82.9,68.6,30.11,SW,231,0.0,3.0,62,0.00,,CLR,0.00,VWS V14.00,2013-05-28 17:47:00,
2013-05-28 13:52:00,82.7,67.9,30.11,SW,216,0.0,5.0,61,0.00,,CLR,0.00,VWS V14.00,2013-05-28 17:52:00,
2013-05-28 13:57:00,82.8,68.5,30.11,SSW,204,0.0,5.0,62,0.00,,CLR,0.00,VWS V14.00,2013-05-28 17:57:00,
2013-05-28 14:02:00,83.1,67.8,30.10,SSW,205,0.0,2.0,60,0.00,,CLR,0.00,VWS V14.00,2013-05-28 18:02:00,
2013-05-28 14:07:00,83.4,68.6,30.10,SE,136,0.0,3.0,61,0.00,,CLR,0.00,VWS V14.00,2013-05-28 18:07:00,
2013-05-28 14:12:00,83.4,68.6,30.10,SSE,166,0.0,3.0,61,0.00,,CLR,0.00,VWS V14.00,2013-05-28 18:12:00,
2013-05-28 14:17:00,83.5,68.7,30.10,SSW,200,0.0,4.0,61,0.00,,CLR,0.00,VWS V14.00,2013-05-28 18:17:00,
2013-05-28 14:22:00,83.6,68.7,30.10,WSW,252,1.0,4.0,61,0.00,,CLR,0.00,VWS V14.00,2013-05-28 18:22:00,
2013-05-28 14:27:00,84.0,70.5,30.10,WSW,239,0.0,4.0,64,0.00,,CLR,0.00,VWS V14.00,2013-05-28 18:27:00,
2013-05-28 14:32:00,84.4,69.5,30.10,SSW,204,3.0,5.0,61,0.00,,CLR,0.00,VWS V14.00,2013-05-28 18:32:00,
2013-05-28 14:37:00,83.9,68.1,30.10,WSW,245,2.0,7.0,59,0.00,,CLR,0.00,VWS V14.00,2013-05-28 18:37:00,
2013-05-28 14:42:00,83.4,68.1,30.10,SW,218,2.0,7.0,60,0.00,,CLR,0.00,VWS V14.00,2013-05-28 18:42:00,
2013-05-28 14:47:00,83.1,67.3,30.10,SW,229,0.0,7.0,59,0.00,,CLR,0.00,VWS V14.00,2013-05-28 18:47:00,
2013-05-28 14:52:00,83.4,68.6,30.10,SSW,193,2.0,7.0,61,0.00,,CLR,0.00,VWS V14.00,2013-05-28 18:52:00,
2013-05-28 14:57:00,83.6,67.3,30.10,WSW,250,0.0,7.0,58,0.00,,CLR,0.00,VWS V14.00,2013-05-28 18:57:00,
2013-05-28 15:02:00,83.6,66.8,30.10,SSW,205,0.0,3.0,57,0.00,,CLR,0.00,VWS V14.00,2013-05-28 19:02:00,
2013-05-28 15:07:00,83.8,68.0,30.10,SSW,210,1.0,4.0,59,0.00,,CLR,0.00,VWS V14.00,2013-05-28 19:07:00,
2013-05-28 15:12:00,84.0,68.6,30.10,West,278,0.0,4.0,60,0.00,,CLR,0.00,VWS V14.00,2013-05-28 19:12:00,
2013-05-28 15:17:00,84.1,68.2,30.10,WSW,239,0.0,4.0,59,0.00,,CLR,0.00,VWS V14.00,2013-05-28 19:17:00,
2013-05-28 15:22:00,84.1,68.2,30.10,SW,219,0.0,4.0,59,0.00,,CLR,0.00,VWS V14.00,2013-05-28 19:22:00,
2013-05-28 15:27:00,83.6,66.8,30.10,SE,144,2.0,4.0,57,0.00,,CLR,0.00,VWS V14.00,2013-05-28 19:27:00,
2013-05-28 15:32:00,82.7,67.4,30.09,SSE,165,0.0,2.0,60,0.00,,CLR,0.00,VWS V14.00,2013-05-28 19:32:00,
2013-05-28 15:37:00,82.5,67.2,30.09,SSE,165,0.0,2.0,60,0.00,,CLR,0.00,VWS V14.00,2013-05-28 19:37:00,
2013-05-28 15:42:00,82.1,68.3,30.09,SSE,165,0.0,2.0,63,0.00,,CLR,0.00,VWS V14.00,2013-05-28 19:42:00,
2013-05-28 15:47:00,82.2,67.9,30.08,SSW,193,0.0,3.0,62,0.00,,CLR,0.00,VWS V14.00,2013-05-28 19:47:00,
2013-05-28 15:51:00,82.5,69.1,30.08,SSW,212,1.0,3.0,64,0.00,,CLR,0.00,VWS V14.00,2013-05-28 19:51:00,
2013-05-28 15:56:00,82.6,67.8,30.08,SSW,212,0.0,3.0,61,0.00,,CLR,0.00,VWS V14.00,2013-05-28 19:56:00,
2013-05-28 16:02:00,82.5,67.2,30.08,SW,224,0.0,3.0,60,0.00,,CLR,0.00,VWS V14.00,2013-05-28 20:02:00,
2013-05-28 16:07:00,82.0,67.7,30.08,SW,224,2.0,3.0,62,0.00,,CLR,0.00,VWS V14.00,2013-05-28 20:07:00,
2013-05-28 16:11:00,82.0,67.7,30.08,SSW,204,0.0,4.0,62,0.00,,CLR,0.00,VWS V14.00,2013-05-28 20:11:00,
2013-05-28 16:16:00,82.1,67.3,30.07,SSW,204,0.0,4.0,61,0.00,,CLR,0.00,VWS V14.00,2013-05-28 20:16:00,
2013-05-28 16:21:00,82.2,68.8,30.07,SSW,213,0.0,4.0,64,0.00,,CLR,0.00,VWS V14.00,2013-05-28 20:21:00,
2013-05-28 16:26:00,82.1,67.8,30.07,SSE,166,0.0,4.0,62,0.00,,CLR,0.00,VWS V14.00,2013-05-28 20:26:00,
2013-05-28 16:31:00,81.8,67.5,30.07,WNW,283,0.0,1.0,62,0.00,,CLR,0.00,VWS V14.00,2013-05-28 20:31:00,
2013-05-28 16:36:00,81.6,68.2,30.07,West,261,0.0,3.0,64,0.00,,CLR,0.00,VWS V14.00,2013-05-28 20:36:00,
2013-05-28 16:41:00,81.3,66.6,30.07,SW,218,0.0,3.0,61,0.00,,CLR,0.00,VWS V14.00,2013-05-28 20:41:00,
2013-05-28 16:46:00,80.8,67.9,30.07,South,184,0.0,3.0,65,0.00,,CLR,0.00,VWS V14.00,2013-05-28 20:46:00,
2013-05-28 16:51:00,80.8,67.5,30.07,NW,311,0.0,3.0,64,0.00,,CLR,0.00,VWS V14.00,2013-05-28 20:51:00,
2013-05-28 16:56:00,81.1,67.3,30.07,South,172,0.0,4.0,63,0.00,,CLR,0.00,VWS V14.00,2013-05-28 20:56:00,
2013-05-28 17:01:00,81.3,67.1,30.07,SSW,196,0.0,3.0,62,0.00,,CLR,0.00,VWS V14.00,2013-05-28 21:01:00,
2013-05-28 17:06:00,81.1,67.3,30.07,South,191,0.0,3.0,63,0.00,,CLR,0.00,VWS V14.00,2013-05-28 21:06:00,
2013-05-28 17:11:00,81.1,67.8,30.07,SSW,198,2.0,3.0,64,0.00,,CLR,0.00,VWS V14.00,2013-05-28 21:11:00,
2013-05-28 17:16:00,81.0,67.2,30.07,SSW,198,0.0,3.0,63,0.00,,CLR,0.00,VWS V14.00,2013-05-28 21:16:00,
2013-05-28 17:21:00,80.6,67.3,30.07,SSW,198,0.0,3.0,64,0.00,,CLR,0.00,VWS V14.00,2013-05-28 21:21:00,
2013-05-28 17:26:00,79.8,67.0,30.07,SSE,168,0.0,3.0,65,0.00,,CLR,0.00,VWS V14.00,2013-05-28 21:26:00,
2013-05-28 17:31:00,79.4,67.5,30.07,South,169,0.0,1.0,67,0.00,,CLR,0.00,VWS V14.00,2013-05-28 21:31:00,
2013-05-28 17:36:00,79.4,67.1,30.07,South,174,0.0,1.0,66,0.00,,CLR,0.00,VWS V14.00,2013-05-28 21:36:00,
2013-05-28 17:41:00,79.8,67.4,30.07,WSW,246,0.0,2.0,66,0.00,,CLR,0.00,VWS V14.00,2013-05-28 21:41:00,
2013-05-28 17:46:00,80.3,67.9,30.07,WSW,252,0.0,3.0,66,0.00,,CLR,0.00,VWS V14.00,2013-05-28 21:46:00,
2013-05-28 17:51:00,80.6,67.8,30.07,WSW,247,0.0,3.0,65,0.00,,CLR,0.00,VWS V14.00,2013-05-28 21:51:00,
2013-05-28 17:56:00,80.9,67.6,30.07,WSW,249,0.0,4.0,64,0.00,,CLR,0.00,VWS V14.00,2013-05-28 21:56:00,
2013-05-28 18:01:00,81.3,68.4,30.07,SW,216,0.0,1.0,65,0.00,,CLR,0.00,VWS V14.00,2013-05-28 22:01:00,
2013-05-28 18:06:00,81.5,67.2,30.07,WSW,256,0.0,2.0,62,0.00,,CLR,0.00,VWS V14.00,2013-05-28 22:06:00,
2013-05-28 18:11:00,81.5,68.6,30.07,West,259,2.0,4.0,65,0.00,,CLR,0.00,VWS V14.00,2013-05-28 22:11:00,
2013-05-28 18:16:00,81.3,67.5,30.07,WSW,251,0.0,4.0,63,0.00,,CLR,0.00,VWS V14.00,2013-05-28 22:16:00,
2013-05-28 18:21:00,80.8,67.0,30.07,WSW,251,0.0,4.0,63,0.00,,CLR,0.00,VWS V14.00,2013-05-28 22:21:00,
2013-05-28 18:26:00,80.0,67.2,30.07,West,266,0.0,4.0,65,0.00,,CLR,0.00,VWS V14.00,2013-05-28 22:26:00,
2013-05-28 18:31:00,79.3,66.5,30.06,West,264,0.0,0.0,65,0.00,,CLR,0.00,VWS V14.00,2013-05-28 22:31:00,
2013-05-28 18:36:00,79.1,66.8,30.06,West,265,0.0,0.0,66,0.00,,CLR,0.00,VWS V14.00,2013-05-28 22:36:00,
2013-05-28 18:41:00,79.1,67.2,30.06,West,265,0.0,0.0,67,0.00,,CLR,0.00,VWS V14.00,2013-05-28 22:41:00,
2013-05-28 18:46:00,79.2,67.3,30.06,West,264,0.0,1.0,67,0.00,,CLR,0.00,VWS V14.00,2013-05-28 22:46:00,
2013-05-28 18:51:00,79.2,67.3,30.06,West,263,0.0,1.0,67,0.00,,CLR,0.00,VWS V14.00,2013-05-28 22:51:00,
2013-05-28 18:56:00,79.1,67.2,30.06,SSE,168,0.0,1.0,67,0.00,,CLR,0.00,VWS V14.00,2013-05-28 22:56:00,
2013-05-28 19:01:00,78.9,67.0,30.06,SSE,147,0.0,0.0,67,0.00,,CLR,0.00,VWS V14.00,2013-05-28 23:01:00,
2013-05-28 19:06:00,78.7,67.3,30.06,SE,146,0.0,1.0,68,0.00,,CLR,0.00,VWS V14.00,2013-05-28 23:06:00,
2013-05-28 19:11:00,78.6,67.2,30.06,SE,146,0.0,1.0,68,0.00,,CLR,0.00,VWS V14.00,2013-05-28 23:11:00,
2013-05-28 19:16:00,78.2,66.8,30.06,SE,146,0.0,1.0,68,0.00,,CLR,0.00,VWS V14.00,2013-05-28 23:16:00,
2013-05-28 19:21:00,77.9,66.9,30.06,SE,146,0.0,1.0,69,0.00,,CLR,0.00,VWS V14.00,2013-05-28 23:21:00,
2013-05-28 19:26:00,77.6,66.6,30.06,SE,146,0.0,1.0,69,0.00,,CLR,0.00,VWS V14.00,2013-05-28 23:26:00,
2013-05-28 19:31:00,77.5,66.9,30.06,SE,146,0.0,0.0,70,0.00,,CLR,0.00,VWS V14.00,2013-05-28 23:31:00,
2013-05-28 19:36:00,77.4,66.9,30.06,SE,146,0.0,0.0,70,0.00,,CLR,0.00,VWS V14.00,2013-05-28 23:36:00,
2013-05-28 19:41:00,77.3,67.2,30.06,SE,146,0.0,0.0,71,0.00,,CLR,0.00,VWS V14.00,2013-05-28 23:41:00,
2013-05-28 19:46:00,77.0,67.3,30.06,SE,146,0.0,0.0,72,0.00,,CLR,0.00,VWS V14.00,2013-05-28 23:46:00,
2013-05-28 19:51:00,76.7,67.0,30.06,SE,146,0.0,0.0,72,0.00,,CLR,0.00,VWS V14.00,2013-05-28 23:51:00,
2013-05-28 19:56:00,76.5,66.8,30.06,SE,146,0.0,0.0,72,0.00,,CLR,0.00,VWS V14.00,2013-05-28 23:56:00,
2013-05-28 20:01:00,76.3,66.6,30.07,SE,146,0.0,0.0,72,0.00,,CLR,0.00,VWS V14.00,2013-05-29 00:01:00,
2013-05-28 20:06:00,76.2,66.5,30.07,SE,146,0.0,0.0,72,0.00,,CLR,0.00,VWS V14.00,2013-05-29 00:06:00,
2013-05-28 20:11:00,76.1,66.4,30.07,SE,146,0.0,0.0,72,0.00,,CLR,0.00,VWS V14.00,2013-05-29 00:11:00,
2013-05-28 20:16:00,76.0,66.3,30.07,SE,146,0.0,0.0,72,0.00,,CLR,0.00,VWS V14.00,2013-05-29 00:16:00,
2013-05-28 20:22:00,75.7,66.4,30.07,SE,146,0.0,0.0,73,0.00,,CLR,0.00,VWS V14.00,2013-05-29 00:22:00,
2013-05-28 20:27:00,75.4,66.2,30.07,SE,146,0.0,0.0,73,0.00,,CLR,0.00,VWS V14.00,2013-05-29 00:27:00,
2013-05-28 20:32:00,75.2,66.0,30.07,SE,146,0.0,0.0,73,0.00,,CLR,0.00,VWS V14.00,2013-05-29 00:32:00,
2013-05-28 20:37:00,75.0,65.8,30.07,SE,146,0.0,0.0,73,0.00,,CLR,0.00,VWS V14.00,2013-05-29 00:37:00,
2013-05-28 20:42:00,74.9,66.1,30.07,SE,146,0.0,0.0,74,0.00,,CLR,0.00,VWS V14.00,2013-05-29 00:42:00,
2013-05-28 20:47:00,74.7,66.3,30.07,SE,146,0.0,0.0,75,0.00,,CLR,0.00,VWS V14.00,2013-05-29 00:47:00,
2013-05-28 20:52:00,74.4,66.0,30.07,SE,146,0.0,0.0,75,0.00,,CLR,0.00,VWS V14.00,2013-05-29 00:52:00,
2013-05-28 20:57:00,74.2,65.8,30.07,SE,146,0.0,0.0,75,0.00,,CLR,0.00,VWS V14.00,2013-05-29 00:57:00,
2013-05-28 21:02:00,74.0,65.6,30.07,SE,146,0.0,0.0,75,0.00,,CLR,0.00,VWS V14.00,2013-05-29 01:02:00,
2013-05-28 21:07:00,73.7,65.7,30.07,SE,146,0.0,0.0,76,0.00,,CLR,0.00,VWS V14.00,2013-05-29 01:07:00,
2013-05-28 21:12:00,73.4,65.8,30.07,SE,146,0.0,0.0,77,0.00,,CLR,0.00,VWS V14.00,2013-05-29 01:12:00,
2013-05-28 21:17:00,73.1,65.5,30.07,SE,146,0.0,0.0,77,0.00,,CLR,0.00,VWS V14.00,2013-05-29 01:17:00,
2013-05-28 21:22:00,72.9,65.7,30.07,SE,146,0.0,0.0,78,0.00,,CLR,0.00,VWS V14.00,2013-05-29 01:22:00,
2013-05-28 21:27:00,72.6,65.3,30.07,SE,146,0.0,0.0,78,0.00,,CLR,0.00,VWS V14.00,2013-05-29 01:27:00,
2013-05-28 21:32:00,72.4,65.2,30.07,SE,146,0.0,0.0,78,0.00,,CLR,0.00,VWS V14.00,2013-05-29 01:32:00,
2013-05-28 21:37:00,72.1,65.2,30.07,SE,146,0.0,0.0,79,0.00,,CLR,0.00,VWS V14.00,2013-05-29 01:37:00,
2013-05-28 21:42:00,71.9,65.4,30.07,SE,146,0.0,0.0,80,0.00,,CLR,0.00,VWS V14.00,2013-05-29 01:42:00,
2013-05-28 21:47:00,71.7,65.2,30.07,SE,146,0.0,0.0,80,0.00,,CLR,0.00,VWS V14.00,2013-05-29 01:47:00,
2013-05-28 21:52:00,71.5,65.4,30.07,SE,146,0.0,0.0,81,0.00,,CLR,0.00,VWS V14.00,2013-05-29 01:52:00,
2013-05-28 21:57:00,71.3,65.5,30.07,SE,146,0.0,0.0,82,0.00,,CLR,0.00,VWS V14.00,2013-05-29 01:57:00,
2013-05-28 22:02:00,71.3,65.5,30.07,SE,146,0.0,0.0,82,0.00,,CLR,0.00,VWS V14.00,2013-05-29 02:02:00,
2013-05-28 22:07:00,71.3,65.5,30.07,SE,146,0.0,0.0,82,0.00,,CLR,0.00,VWS V14.00,2013-05-29 02:07:00,
2013-05-28 22:12:00,71.5,65.4,30.07,SE,146,0.0,0.0,81,0.00,,CLR,0.00,VWS V14.00,2013-05-29 02:12:00,
2013-05-28 22:17:00,71.6,65.5,30.08,SE,146,0.0,0.0,81,0.00,,CLR,0.00,VWS V14.00,2013-05-29 02:17:00,
2013-05-28 22:22:00,71.6,65.5,30.08,SE,146,0.0,0.0,81,0.00,,CLR,0.00,VWS V14.00,2013-05-29 02:22:00,
2013-05-28 22:27:00,71.3,65.2,30.08,SE,146,0.0,0.0,81,0.00,,CLR,0.00,VWS V14.00,2013-05-29 02:27:00,
2013-05-28 22:32:00,71.2,65.4,30.08,SE,146,0.0,0.0,82,0.00,,CLR,0.00,VWS V14.00,2013-05-29 02:32:00,
2013-05-28 22:37:00,70.8,65.0,30.08,SE,146,0.0,0.0,82,0.00,,CLR,0.00,VWS V14.00,2013-05-29 02:37:00,
2013-05-28 22:42:00,70.6,65.2,30.08,SE,146,0.0,0.0,83,0.00,,CLR,0.00,VWS V14.00,2013-05-29 02:42:00,
2013-05-28 22:47:00,70.3,64.9,30.08,SE,146,0.0,0.0,83,0.00,,CLR,0.00,VWS V14.00,2013-05-29 02:47:00,
2013-05-28 22:52:00,70.1,65.1,30.08,SE,146,0.0,0.0,84,0.00,,CLR,0.00,VWS V14.00,2013-05-29 02:52:00,
2013-05-28 22:57:00,69.8,64.8,30.08,SE,146,0.0,0.0,84,0.00,,CLR,0.00,VWS V14.00,2013-05-29 02:57:00,
2013-05-28 23:02:00,69.6,64.9,30.08,SE,146,0.0,0.0,85,0.00,,CLR,0.00,VWS V14.00,2013-05-29 03:02:00,
2013-05-28 23:07:00,69.5,64.8,30.08,SE,141,0.0,1.0,85,0.00,,CLR,0.00,VWS V14.00,2013-05-29 03:07:00,
2013-05-28 23:12:00,69.5,64.8,30.08,SE,141,0.0,1.0,85,0.00,,CLR,0.00,VWS V14.00,2013-05-29 03:12:00,
2013-05-28 23:17:00,69.5,65.1,30.08,SE,141,0.0,1.0,86,0.00,,CLR,0.00,VWS V14.00,2013-05-29 03:17:00,
2013-05-28 23:22:00,69.4,65.0,30.08,NNE,18,0.0,1.0,86,0.00,,CLR,0.00,VWS V14.00,2013-05-29 03:22:00,
2013-05-28 23:27:00,69.4,65.0,30.08,SSE,158,0.0,1.0,86,0.00,,CLR,0.00,VWS V14.00,2013-05-29 03:27:00,
2013-05-28 23:32:00,69.6,65.2,30.08,SSE,160,0.0,1.0,86,0.00,,CLR,0.00,VWS V14.00,2013-05-29 03:32:00,
2013-05-28 23:37:00,69.7,65.0,30.08,SSE,160,0.0,1.0,85,0.00,,CLR,0.00,VWS V14.00,2013-05-29 03:37:00,
2013-05-28 23:42:00,69.8,65.4,30.08,SSE,160,0.0,1.0,86,0.00,,CLR,0.00,VWS V14.00,2013-05-29 03:42:00,
2013-05-28 23:47:00,69.8,65.1,30.08,SSE,160,0.0,1.0,85,0.00,,CLR,0.00,VWS V14.00,2013-05-29 03:47:00,
2013-05-28 23:52:00,69.8,65.1,30.08,SSE,160,0.0,1.0,85,0.00,,CLR,0.00,VWS V14.00,2013-05-29 03:52:00,
2013-05-28 23:57:00,69.8,65.1,30.08,SSE,160,0.0,1.0,85,0.00,,CLR,0.00,VWS V14.00,2013-05-29 03:57:00,